EW2348 Weather Reports


Display with metric or nautical units.
time (UTC)temp
F
wind
direction
speed
MPH
gust
MPH
rain 1hr
in
rain 24hr
in
rain mn
in
humidity
%
barometer
mb
20141124174029 54 178 11.0 36.0 0.00 0.98 0.14 75 1000.8
20141124173029 53 204 19.0 33.0 0.00 0.98 0.14 75 1000.1
20141124172029 54 194 14.0 41.0 0.01 0.98 0.14 76 999.8
20141124171029 54 194 23.0 39.0 0.01 0.98 0.14 76 999.6
20141124170029 55 186 20.0 41.0 0.01 0.98 0.14 76 999.4
20141124165029 56 197 15.0 27.0 0.01 0.98 0.14 74 999.1
20141124164029 58 181 23.0 40.0 0.04 0.98 0.14 71 998.5
20141124161029 59 186 13.0 38.0 0.05 0.96 0.13 74 997.8
20141124160029 58 168 16.0 36.0 0.05 0.96 0.13 81 997.3
20141124154028 57 167 27.0 49.0 0.04 0.94 0.11 85 996.2
20141124152028 60 98 15.0 42.0 0.01 0.92 0.08 75 995.7
20141124150028 62 154 20.0 34.0 0.02 0.92 0.08 68 994.9
20141124145028 62 136 17.0 34.0 0.04 0.92 0.08 69 994.8
20141124143028 62 153 13.0 30.0 0.04 0.91 0.07 70 994.5
20141124142027 62 145 23.0 34.0 0.04 0.91 0.07 69 994.1
20141124141027 63 140 17.0 37.0 0.04 0.91 0.07 69 994.0
20141124140027 62 156 27.0 41.0 0.02 0.89 0.06 71 993.8
20141124134027 62 115 11.0 24.0 0.00 0.87 0.04 74 993.6
20141124133027 62 138 15.0 34.0 0.00 0.87 0.04 75 993.5
20141124131026 61 135 11.0 17.0 0.00 0.87 0.04 77 993.4
20141124130026 3 135 11.0 17.0 0.00 0.87 0.04 92 993.3
20141124125027 61 132 8.0 26.0 0.00 0.87 0.04 77 993.5
20141124124027 61 147 17.0 30.0 0.00 0.87 0.04 76 993.1
20141124123026 61 154 15.0 21.0 0.00 0.87 0.04 77 993.3
20141124121026 61 119 11.0 25.0 0.00 0.87 0.04 77 993.4
20141124120026 61 132 13.0 23.0 0.00 0.87 0.04 77 993.4
20141124114026 61 127 11.0 19.0 0.21 0.87 0.04 77 993.7
20141124113025 61 134 13.0 19.0 0.01 0.87 0.04 77 993.8
20141124112025 60 123 11.0 17.0 0.01 0.87 0.04 77 993.5
20141124111025 130 1 127.0 18.0 0.00 6.89 0.04 10 993.6
20141124110025 130 1 127.0 18.0 0.00 6.89 0.04 10 993.6
20141124105025 130 329 127.0 21.0 0.00 0.66 0.04 10 993.9
20141124104025 61 314 103.0 21.0 0.00 0.66 0.04 10 994.0
20141124103025 60 135 107.0 15.0 0.00 0.86 0.04 76 994.0
20141124102025 60 135 9.0 15.0 0.00 0.86 0.04 76 994.1
20141124100024 60 90 8.0 13.0 0.00 0.86 0.04 75 994.4
20141124095024 60 135 11.0 20.0 0.00 0.86 0.04 74 994.4
20141124094025 60 134 11.0 22.0 0.00 0.86 0.04 74 994.3
20141124093024 60 118 11.0 20.0 0.00 0.86 0.04 74 994.4
20141124091024 60 144 8.0 27.0 0.00 0.86 0.04 72 994.4
20141124090023 60 135 11.0 22.0 0.00 0.86 0.04 70 994.3
20141124085024 60 135 11.0 23.0 0.00 0.86 0.04 68 994.2
20141124084024 59 142 8.0 22.0 0.00 0.86 0.04 64 994.2
20141124081027 58 146 9.0 19.0 0.00 0.86 0.04 43 994.4
20141124075023 59 142 11.0 21.0 0.00 0.86 0.04 68 994.3
20141124074023 59 145 9.0 21.0 0.00 0.86 0.04 71 993.9
20141124073022 59 149 11.0 21.0 0.01 0.86 0.04 71 993.8
20141124071023 59 153 8.0 23.0 0.01 0.86 0.04 69 993.8
20141124070022 59 161 10.0 21.0 0.01 0.86 0.04 66 993.6
20141124065022 59 145 11.0 23.0 0.01 0.86 0.04 64 993.5
20141124064022 59 141 9.0 40.0 0.01 0.86 0.04 61 993.3
20141124063023 59 157 17.0 23.0 0.00 0.85 0.02 47 993.1
20141124062022 58 149 13.0 27.0 0.01 0.85 0.02 28 992.9
20141124060022 58 128 11.0 23.0 0.02 0.85 0.02 10 992.6
20141124053021 58 126 13.0 21.0 0.02 0.85 0.02 20 992.1
20141124052022 58 119 10.0 20.0 0.02 0.83 0.01 39 992.3
20141124043021 58 107 13.0 21.0 0.01 0.82 0.83 61 992.3
20141124042021 57 111 9.0 17.0 0.00 0.81 0.81 57 992.5
20141124041021 57 100 8.0 20.0 0.00 0.81 0.81 54 992.5
20141124040020 57 114 9.0 19.0 0.00 0.81 0.81 50 992.7
20141124034021 56 90 11.0 15.0 0.00 0.81 0.81 46 993.0
20141124030020 56 108 13.0 22.0 0.07 0.81 0.81 10 993.6
20141124025021 55 90 11.0 17.0 0.07 0.81 0.81 10 993.8
20141124024020 55 114 8.0 16.0 0.07 0.80 0.80 10 994.2
20141124021021 55 97 4.0 15.0 0.02 0.74 0.74 10 994.0
20141124015031 55 65 4.0 17.0 0.07 0.73 0.73 10 994.6
20141124014030 55 29 10.0 17.0 0.09 0.72 0.72 10 994.9
20141124013030 54 113 4.0 15.0 0.15 0.72 0.72 10 995.0
20141124011031 54 6 7.0 17.0 0.28 0.71 0.71 10 995.5
20141124005030 54 2 3.0 15.0 0.34 0.66 0.66 10 996.5
20141124004031 54 43 4.0 17.0 0.33 0.63 0.63 10 997.2